COSMOS 2251 DEB, 33983

Orbit data source: Space-Track

COSMOS 2251 DEB, 33983 is space debris in LEO originally from a launch on Wed, 16 Jun 1993 UTC launched from the Plesetsk Missile And Space Complex (PKMTR). The debris from Iridium 33, an American commercial communications satellite, has been tracked extensively since its accidental collision with the defunct Russian satellite Cosmos 2251 in 2009. This event, occurring at high speed in low Earth orbit (LEO), generated thousands of pieces of space debris, significantly increasing the risk of further collisions. The Iridium 33 debris cloud has impacted space traffic management and orbital debris mitigation strategies, making it a subject of ongoing study in space situational awareness.

Loading next visibility...
Identifier
33983, 1993-036FS
Orbit
LEO
Country
Flag of CISCIS
Related business
Manufacturer
Unknown
Mission
Spacecraft
Bus & Motor
Unknown
Mass
Unknown
Launch date (UTC)
Icon of a cake. It is the launch day of the satellite!1993-06-16 (33 years ago)
Launch vehicle
Unknown
Launch site
Plesetsk Missile And Space Complex (PKMTR)
Object type
Payload
Rocket body
Debris
Shape & HBR
Unknown shape, 0.2 m
Radar Cross Section
Medium (>0.1 m² and <1 m²)

Expand to show TLE details & history
Last TLE update: 14 hours ago

TLE from 14 hours ago
0 COSMOS 2251 DEB
1 33983U 93036FS  26167.06460233  .00001116  00000-0  28616-3 0  9998
2 33983  74.0483 158.7441 0021544 217.4116 211.0401 14.51348510913174
Epoch: 2026-06-16T01:33Z
TLE epoch observation values (Epoch: 2026-06-16T01:33:01.641Z)
Latitude
63.41914°
Longitude
-94.22857°
Altitude
744.917 km
Speed
7.482 km/s
True Right ascension
12h 53m 28s
True Declination
63° 16' 52"
Sunlit
Object was in daylight at epoch
Visualization orbit readout
Latitude
Unknown
Longitude
Unknown
Altitude
Unknown
Speed
Unknown
Apparent Right ascension
Unknown
Apparent Declination
Unknown
Sunlit
N/A
Visualization observer readout
Local Sidereal Time
02:33:23
Azimuth
Unknown
Elevation
Unknown
Doppler factor
Unknown
Orbital elements
Apogee altitude
734.143 km
Perigee altitude
703.564 km
Semi-major axis
7,096.991 km
Eccentricity
0.00215
Inclination
74.0483°
RAAN
158.7441°
Arg. of periapsis
217.4116°
True anomaly
210.91309°
Mean anomaly
211.0401°
Eccentric anomaly
210.97657°
Mean motion
3.63021 °/min
Orbital period
99.17 mins
BSTAR
0.00028616

Documentation

Showing up to 5 results
|